sat.trackr.live / text

‹ back to catalog

STARLINK-30486

NORAD 58009 · 2023-153U

PAYLOAD ACTIVE UNKNOWN

§ Identity

Operator
Country
US
Launch date
2023-10-05
Launch site
AFETR
Launch vehicle
Mass (kg)
RCS (m²)

Purposes: comms

External: N2YO · Heavens-Above · Gunter

§ Orbital elements

Epoch: 2026-05-24T23:05:42.524736Z

Period
94.27 min
Inclination
43.0040°
Eccentricity
0.0001474
Mean motion
15.27594778 rev/d
Perigee alt
482.0 km
Apogee alt
484.0 km
Semi-major
6,861.1 km
B*
2.7165e-4
RAAN
356.0950°
Arg perigee
276.2350°
Mean anomaly
83.8334°
Rev number
14,646

§ Raw data

STARLINK-304861 58009U 23153U   26144.96229774  .00007224  00000+0  27165-3 0  99972 58009  43.0040 356.0950 0001474 276.2350  83.8334 15.27594778146469

JSON: /api/v1/satellites/58009 · /tle

For live sub-satellite position, see the globe view (requires WebGL).

§ Visibility from observer

Set your observer location to see the next 7 days of passes ≥ 10°. The values pass through the URL so the page stays shareable.

No JS? Fill the form by hand. The geolocation button needs JavaScript.